RH
6 6 8 10 26 28 37 42 38 31 28 29 28 25 14 11 13 23 20 13 3 5 7 8 8 8 8 8 8 9 9 9 9 8 8 8 7 7 6 5 5 4 3 4 4 4 4 3 3
6 6 8 14 31 26 33 36 34 29 26 20 16 14 14 10 10 16 13 12 2 4 6 8 9 9 9 9 10 10 10 10 9 9 9 8 8 8 7 6 5 4 3 3 3 3 3 3 3
6 7 8 15 22 18 28 35 35 27 25 19 18 18 14 9 6 13 13 9 3 4 6 8 9 9 9 10 10 11 11 11 10 10 9 8 7 7 8 7 5 5 3 3 3 3 3 3 3
7 7 7 18 19 17 27 29 29 27 24 26 23 18 13 11 4 5 9 6 3 3 5 7 9 10 10 10 12 12 12 13 12 11 9 8 7 6 7 6 5 5 3 3 3 3 3 3 3
7 7 7 10 12 21 25 26 30 27 26 23 22 19 16 13 12 5 4 7 6 2 4 6 9 10 11 12 13 14 14 14 14 14 12 10 7 6 7 6 5 4 3 3 3 3 3 3 4
7 7 10 14 9 14 23 26 27 26 27 18 15 16 17 16 14 12 5 6 7 3 3 5 8 10 12 13 14 15 15 16 16 16 15 14 10 7 6 6 5 4 4 3 4 4 4 4 5
9 8 12 8 7 8 18 26 28 28 23 17 12 12 14 16 15 14 12 6 6 4 3 4 6 9 11 13 14 16 16 16 16 16 16 15 14 10 7 6 5 4 4 3 3 4 4 5 5
12 10 10 10 10 13 12 21 26 25 21 18 16 15 13 13 14 15 15 13 8 5 5 3 4 7 10 12 14 15 16 17 17 16 16 16 15 14 10 6 5 4 3 3 3 4 4 5 4
16 13 17 13 12 12 13 14 22 23 21 18 19 18 15 14 15 16 17 16 14 10 6 5 3 5 7 10 12 14 15 16 17 17 17 16 16 15 12 8 6 4 3 2 3 4 4 5 4
15 14 14 14 14 14 15 17 22 23 21 19 21 21 17 16 16 17 17 15 12 11 10 6 5 4 5 7 9 12 14 15 16 17 17 17 17 16 14 10 6 4 3 2 3 3 4 4 4
15 14 14 14 13 14 16 19 21 22 22 22 23 21 18 16 17 18 18 16 15 16 16 12 7 5 4 5 7 9 11 14 15 16 17 17 17 17 16 12 8 4 3 2 3 3 3 4 4
16 15 15 14 14 14 15 18 21 22 23 24 24 23 19 16 18 19 20 20 20 21 20 19 15 10 6 5 5 7 9 12 14 16 17 18 18 17 16 15 12 7 4 3 2 3 3 3 3
16 16 16 16 15 16 18 20 23 25 26 27 25 23 17 16 17 17 18 18 20 20 18 17 17 16 12 8 6 6 8 10 12 15 17 18 19 19 18 19 19 18 15 8 4 3 3 3 3
17 18 18 18 17 18 18 17 19 17 17 16 16 16 16 16 18 16 15 17 19 20 20 19 17 16 14 11 8 7 7 9 11 14 17 19 20 20 20 20 21 22 22 20 17 12 6 3 3
19 20 20 19 18 19 19 17 16 16 15 15 15 14 14 14 13 14 17 18 20 22 22 23 22 19 16 13 9 7 6 8 11 14 17 20 21 21 21 22 23 24 25 24 23 22 20 18 16
21 23 21 16 16 16 17 14 12 13 14 12 11 9 9 11 13 14 16 17 15 17 23 27 26 23 19 15 11 8 6 7 10 14 18 20 22 23 23 24 25 26 27 26 27 27 28 28 28
22 26 18 17 14 15 15 12 10 10 11 11 11 10 10 12 12 14 16 17 16 18 27 28 28 27 23 18 14 10 8 7 9 13 17 21 23 24 25 26 27 29 29 29 29 28 28 27 28
28 20 18 17 15 15 16 14 12 10 10 10 10 11 11 12 13 15 16 17 16 18 24 28 28 29 27 22 18 14 10 8 9 12 16 21 24 25 27 29 30 31 32 33 33 33 34 34 35
22 20 20 19 18 19 19 20 17 13 15 14 12 12 10 12 11 11 15 17 17 17 23 28 31 33 31 27 23 17 13 10 9 11 15 20 24 26 28 30 32 34 35 36 37 38 39 41 41
24 24 22 22 22 23 22 21 25 22 17 16 14 12 12 14 12 11 14 17 19 19 25 29 31 34 34 31 27 22 18 14 11 11 15 20 25 28 29 32 35 37 39 41 41 42 43 44 45
26 25 24 23 22 22 20 18 16 17 18 16 15 13 12 13 13 13 14 19 22 22 24 31 34 35 36 36 30 25 21 17 13 11 13 20 25 28 30 32 35 39 41 42 44 45 46 47 48
28 26 24 26 26 36 23 43 17 15 15 15 14 13 13 12 13 15 16 19 26 28 27 29 34 35 37 38 34 28 24 20 15 12 13 17 22 26 29 31 35 39 43 45 46 48 49 50 51
29 25 27 28 33 34 28 26 23 18 15 14 13 13 12 12 12 16 21 24 29 30 31 30 36 37 38 41 38 32 27 23 18 14 13 13 18 23 28 31 33 36 41 45 48 50 53 54 54
33 34 35 36 37 54 32 35 24 18 15 14 14 14 12 12 12 13 21 28 30 32 33 32 37 40 39 42 41 36 30 26 21 16 14 14 15 19 24 28 31 34 37 40 45 49 52 54 55
41 40 53 58 57 49 29 36 27 16 15 14 15 14 15 16 15 15 24 32 34 37 39 38 41 44 43 44 44 40 34 30 25 21 17 16 16 18 21 26 30 33 35 38 42 45 48 51 52
41 41 41 47 39 30 43 51 22 18 20 18 17 18 20 24 25 26 33 36 40 41 40 41 46 49 49 48 47 43 38 34 31 26 22 20 20 20 21 23 25 29 32 36 37 40 42 45 47
41 42 31 26 36 52 35 29 23 20 21 22 21 24 30 34 38 41 43 44 43 42 42 44 47 49 50 49 48 46 42 39 36 33 29 26 26 26 26 27 27 28 30 33 36 38 40 42 44
40 38 42 35 61 45 27 32 23 16 21 28 32 35 38 41 42 43 44 45 45 44 43 44 48 52 54 55 54 51 49 47 44 41 39 35 32 32 33 34 34 33 31 32 35 39 41 42 44
42 45 39 34 29 45 27 26 15 16 18 28 36 40 43 45 46 47 47 47 46 45 46 48 51 54 54 55 56 57 58 58 56 54 51 46 42 39 38 38 39 39 38 36 34 36 42 47 48
45 40 38 35 50 34 42 36 17 18 22 27 32 37 41 44 46 47 46 46 47 52 57 60 60 59 58 57 56 54 53 53 54 56 57 56 54 50 47 44 42 43 44 42 40 40 42 48 54
Wind_Speed
6 7 9 13 7 4 6 6 11 8 6 3 3 2 1 2 2 3 3 8 12 11 10 9 9 9 9 9 8 7 6 6 6 6 6 6 5 6 5 6 6 5 5 5 3 5 6 8 9
7 8 10 13 3 6 8 10 12 9 5 2 1 1 1 1 2 3 3 7 13 11 10 9 8 8 9 8 8 7 6 7 7 7 6 6 5 6 6 6 6 5 5 5 4 6 7 8 8
8 9 11 7 7 7 5 12 12 10 5 3 2 1 1 1 2 4 4 6 13 13 11 10 8 7 7 7 7 7 7 7 7 7 6 6 6 5 6 6 6 6 5 5 4 5 7 8 8
9 10 10 7 7 10 11 13 12 9 7 4 2 1 1 1 1 3 6 6 13 14 13 10 9 8 8 7 7 7 7 7 8 8 7 6 6 6 6 6 6 6 5 5 4 5 7 7 8
10 11 11 10 10 10 10 13 14 11 8 5 4 4 3 2 2 2 5 7 14 15 14 12 10 9 9 8 8 7 8 7 7 7 7 7 6 5 5 6 6 6 5 5 4 4 6 6 7
12 12 7 11 11 12 12 13 14 12 9 5 6 6 5 5 4 3 4 6 10 14 14 13 12 10 9 8 7 6 6 6 6 5 6 6 6 5 5 4 5 5 6 6 5 5 5 5 6
12 12 11 10 11 12 14 15 15 13 10 7 6 6 6 7 6 6 5 5 8 12 14 14 12 11 10 9 8 7 6 5 5 4 4 4 5 5 5 5 5 5 6 6 5 5 5 5 5
13 13 13 13 12 11 14 16 16 14 13 9 7 5 6 8 7 7 7 7 7 10 13 15 14 13 12 10 10 8 6 5 4 4 4 4 4 4 4 4 5 5 5 5 6 6 5 5 4
13 14 14 14 11 13 12 16 17 16 14 11 9 8 7 6 7 8 7 8 9 10 11 14 15 15 14 12 11 9 8 7 6 5 4 4 4 4 4 4 5 5 5 6 6 7 7 6 5
15 16 15 15 12 12 13 14 16 16 15 13 11 10 10 9 9 9 9 10 10 10 11 12 15 17 15 14 13 12 11 9 8 6 5 4 4 4 4 4 5 5 6 6 6 6 6 6 5
15 16 13 12 11 13 13 15 16 16 16 14 12 12 11 11 11 11 13 14 13 12 11 12 13 15 15 15 14 14 13 11 9 8 7 6 6 6 5 5 5 5 5 6 6 6 6 6 6
14 13 13 13 12 13 14 15 17 17 17 16 15 14 13 12 12 12 14 14 14 14 13 13 13 14 15 16 16 15 14 12 11 10 9 9 8 7 6 6 6 5 6 6 6 6 6 6 6
13 14 12 12 13 14 13 14 15 16 17 17 17 17 15 14 14 16 17 17 16 15 15 15 15 15 16 16 16 15 14 13 12 11 11 10 9 9 8 7 7 6 6 6 6 6 6 6 6
13 15 14 13 13 14 14 14 15 15 17 16 16 16 15 15 14 15 15 15 15 15 15 14 14 15 15 16 16 16 15 14 13 13 12 12 11 10 9 9 9 8 7 7 7 6 6 6 6
15 12 12 15 14 14 13 15 15 14 11 14 14 14 15 15 15 14 16 16 16 16 15 15 14 14 15 16 16 16 15 15 14 14 13 12 12 11 11 10 10 9 8 8 8 7 6 5 5
14 15 14 14 15 15 14 10 15 15 15 14 14 14 15 14 15 16 17 17 16 15 15 15 15 15 15 16 16 16 16 16 15 15 14 13 13 12 12 12 11 11 10 9 9 8 7 6 5
15 9 17 14 14 16 16 13 11 13 14 15 13 15 16 16 16 15 17 18 17 17 16 16 16 16 16 16 16 16 16 16 16 15 15 14 14 14 14 14 13 12 11 10 9 8 7 6 5
15 18 15 14 14 15 15 13 14 15 14 14 14 15 16 16 15 17 18 18 19 18 19 18 16 15 15 16 17 17 17 17 17 17 16 16 15 16 16 15 14 14 13 12 11 9 8 6 6
17 15 16 16 17 14 16 17 15 18 16 14 15 16 17 18 21 20 21 20 19 19 19 18 16 16 16 18 18 19 19 18 18 18 18 18 17 17 17 16 16 16 15 14 12 10 9 8 7
23 20 16 14 14 15 16 17 20 22 22 20 19 20 22 23 24 23 21 20 18 18 20 20 18 18 19 19 20 20 20 19 20 20 20 20 19 19 19 18 18 17 16 15 14 12 12 11 10
25 24 23 20 16 17 19 22 23 25 26 25 24 23 23 25 26 26 23 21 21 19 19 20 20 21 21 21 20 21 20 20 20 21 21 21 21 21 20 20 19 19 18 18 17 16 14 13 12
24 23 22 20 18 10 15 6 15 21 26 27 28 28 28 28 28 28 27 25 23 21 22 24 24 23 23 22 22 22 22 23 23 23 23 23 22 22 22 22 22 21 21 20 19 18 17 16 16
22 20 19 18 18 16 16 7 16 22 22 22 23 24 24 24 27 31 29 27 27 26 24 24 26 26 25 24 24 23 23 23 24 24 24 23 23 23 24 24 23 23 23 23 22 21 20 20 19
17 15 12 12 11 5 20 16 11 20 23 25 25 23 23 23 23 27 31 30 29 27 24 24 25 25 25 25 25 24 24 24 25 25 25 25 25 25 25 26 26 26 26 26 25 25 24 24 23
21 15 3 2 4 5 12 13 18 17 22 24 25 22 21 20 21 25 30 30 27 25 23 23 23 23 24 24 25 25 25 25 26 26 26 26 26 26 27 28 28 29 29 29 28 28 28 27 26
26 23 8 6 5 3 9 9 11 25 23 17 18 17 17 16 18 22 26 26 25 24 23 22 23 23 23 24 25 25 26 26 26 27 27 27 27 28 28 29 30 31 31 31 31 31 31 31 30
22 21 22 3 2 1 6 8 9 14 17 21 20 17 16 16 18 20 22 22 22 21 20 20 21 22 22 23 24 24 25 25 26 27 28 28 29 29 30 30 31 32 32 33 34 34 34 34 33
20 19 10 10 5 6 6 7 11 18 18 16 17 17 17 17 19 19 20 19 18 17 17 17 18 19 19 20 20 21 22 24 25 26 28 29 31 31 32 32 33 33 34 34 35 36 36 37 36
25 23 14 11 7 4 3 5 12 18 13 17 17 17 18 18 19 18 18 17 17 17 17 16 15 15 14 15 16 17 19 21 23 24 27 29 31 33 33 34 35 36 36 36 37 38 38 38 38
25 25 26 10 8 9 3 6 8 13 17 17 17 17 17 17 17 17 17 17 16 16 15 13 12 12 12 13 15 17 19 20 22 23 27 29 32 34 36 37 38 38 38 38 38 39 39 40 39
Wind_Direction
187 189 183 173 177 217 202 193 168 160 171 208 250 239 310 314 189 232 216 178 177 166 158 152 151 147 147 137 133 128 125 125 117 118 116 119 117 114 113 106 100 97 96 109 95 81 80 76 75
185 185 181 180 202 212 188 186 169 172 174 186 179 227 315 324 221 187 127 173 179 174 168 159 155 154 148 141 135 128 122 117 114 109 111 117 132 134 130 122 123 111 113 123 114 91 89 79 76
189 185 187 188 223 219 199 185 186 179 181 157 153 211 307 335 218 200 182 184 184 182 177 169 163 162 153 149 137 129 120 108 105 104 110 113 117 126 132 135 131 127 127 129 122 99 96 91 83
197 193 197 206 222 209 191 192 191 191 185 183 204 228 173 74 82 193 206 187 183 189 183 181 173 167 161 154 137 129 119 116 106 99 100 102 107 116 132 134 137 141 142 135 125 112 103 98 93
203 203 205 220 217 203 199 198 191 194 198 221 227 215 219 200 163 166 188 191 191 194 190 188 182 175 169 158 150 139 129 114 107 101 95 92 97 109 121 131 137 154 156 145 142 122 110 104 96
207 208 209 218 219 211 203 191 190 193 208 219 231 226 222 218 209 197 188 190 194 199 198 198 192 186 178 170 161 150 139 133 120 111 98 93 91 96 110 122 134 155 157 161 158 139 126 117 101
214 219 227 224 221 217 210 203 198 203 215 223 218 224 226 221 220 203 196 190 195 201 205 207 202 195 191 183 180 176 168 154 142 127 117 115 109 103 105 120 137 156 161 166 167 159 150 137 122
222 225 238 233 228 227 217 210 209 210 221 225 220 227 222 222 219 210 201 201 204 206 208 210 207 201 202 199 199 195 190 184 175 157 154 140 124 117 114 121 133 148 158 169 173 171 167 156 144
228 229 239 238 233 233 224 217 214 217 223 221 223 219 221 219 206 208 208 212 211 213 212 213 211 211 210 210 211 211 207 204 199 188 179 161 148 148 140 137 138 142 156 168 175 177 177 175 167
227 235 246 245 239 237 228 220 218 221 221 224 227 232 234 231 219 211 207 209 208 209 213 212 210 215 215 216 216 216 216 213 209 203 196 188 177 176 165 153 143 144 151 162 170 174 177 176 173
234 238 244 244 239 235 229 222 220 223 230 225 228 234 238 234 222 213 210 211 209 212 214 214 214 215 216 217 218 219 219 218 214 210 206 200 196 191 178 165 154 153 150 158 163 167 171 173 172
236 240 240 241 239 237 229 226 225 225 229 226 229 240 245 233 223 214 218 218 218 219 220 221 222 220 218 218 218 220 220 218 216 213 210 207 201 194 185 174 166 161 153 163 159 160 164 170 170
239 239 238 238 235 233 230 226 226 225 228 231 237 242 237 229 221 216 217 222 226 227 225 224 224 224 223 222 221 220 219 219 218 215 212 209 203 198 190 183 182 175 168 171 162 164 168 175 179
241 238 236 235 232 231 231 232 231 232 233 233 230 229 226 220 213 216 220 220 221 227 227 227 225 224 223 225 224 222 221 219 218 216 213 210 205 199 194 188 186 181 178 178 175 173 174 178 188
239 234 232 233 229 231 232 233 229 223 219 217 218 217 215 212 211 207 207 212 217 221 225 228 228 223 223 222 222 222 222 220 218 216 213 210 207 202 197 194 189 184 182 182 178 175 173 175 182
231 232 233 232 228 231 222 236 224 218 216 211 217 216 210 205 202 208 208 213 221 225 225 225 225 225 223 222 221 221 221 221 219 216 213 211 208 204 203 199 193 187 186 186 183 180 173 173 182
230 227 230 232 227 225 219 227 208 202 208 206 210 207 206 206 208 208 210 214 220 221 221 224 225 224 225 223 222 221 221 221 220 217 215 212 210 207 206 203 197 194 195 193 191 185 187 182 193
222 226 232 224 227 223 220 211 205 198 191 196 205 209 211 210 209 213 215 219 224 224 224 225 227 226 226 224 222 220 220 220 220 218 216 215 214 212 209 206 204 202 201 199 198 197 194 201 209
244 237 238 239 234 226 229 216 210 203 212 217 222 222 220 214 220 224 223 224 227 228 228 229 227 225 224 224 224 222 221 220 219 218 217 216 216 216 214 212 212 212 211 209 207 206 207 213 223
240 239 234 233 230 230 234 231 222 230 232 234 237 232 228 223 225 227 227 228 230 229 228 229 230 228 227 226 227 227 226 224 222 220 219 218 217 216 216 216 216 217 216 217 217 218 220 228 236
237 238 239 236 240 243 251 257 241 238 239 242 240 237 234 231 231 228 227 225 226 228 230 230 229 229 228 228 227 227 227 227 226 224 222 221 221 220 221 221 222 222 224 225 225 227 231 237 244
240 241 241 240 238 235 235 256 246 242 240 237 240 241 236 234 233 231 226 225 225 227 228 225 226 228 229 229 228 227 226 225 224 225 226 225 224 224 224 224 225 225 227 230 232 235 238 241 246
235 237 233 230 228 238 238 239 243 235 238 237 233 235 236 230 229 232 229 224 223 227 229 228 227 227 229 229 230 230 228 228 229 230 230 229 229 229 229 230 230 231 232 233 235 237 240 243 247
227 221 214 216 218 228 238 215 245 235 235 240 239 233 231 235 231 226 224 222 225 229 232 234 231 229 230 232 233 232 231 230 232 232 231 231 233 234 234 233 233 234 235 237 238 239 242 246 250
211 190 150 209 197 235 228 207 230 236 229 231 233 235 237 235 227 218 217 219 224 228 232 234 234 233 233 233 235 235 234 233 234 236 236 236 235 236 237 237 237 237 237 238 240 242 245 247 250
211 206 193 209 198 169 206 225 230 232 231 222 227 230 230 223 211 208 211 217 222 228 231 232 231 232 233 234 235 236 236 236 237 238 239 239 239 240 241 243 244 244 243 243 243 245 246 248 250
209 209 217 205 133 261 212 230 225 222 224 222 220 216 209 206 206 208 212 218 223 227 229 232 235 237 239 240 241 241 240 239 239 241 242 243 244 244 244 244 246 247 248 248 247 247 247 249 250
212 212 197 201 190 219 206 245 227 220 212 209 204 202 203 205 206 209 213 216 219 222 225 228 232 235 238 242 244 244 245 245 245 246 248 248 249 249 249 248 248 248 248 249 250 250 251 251 252
210 211 205 196 200 218 187 219 223 218 211 216 204 199 200 203 207 209 213 217 221 223 221 220 221 226 230 237 243 247 249 250 251 251 251 252 253 253 252 252 251 251 251 250 250 251 251 252 253
219 221 217 209 207 211 204 238 212 211 207 194 195 195 198 203 208 212 212 209 203 196 193 198 208 221 236 247 253 258 261 260 259 257 255 255 255 255 254 253 253 253 253 253 253 253 253 253 253